Weather reports worldwide

Advertisment
Rostock-Warnemünde, Germany (10170): temperature & dewpoint: 11.01.2021 22:00:00 - 17.01.2021 22:00:00 (CET)Rostock-Warnemünde, Germany (10170): temperature 5cm & temperature -5cm: 11.01.2021 22:00:00 - 17.01.2021 22:00:00 (CET)Rostock-Warnemünde, Germany (10170): temperature -20cm & temperature -100cm: 11.01.2021 22:00:00 - 17.01.2021 22:00:00 (CET)Rostock-Warnemünde, Germany (10170): wind speed & gusts: 11.01.2021 22:00:00 - 17.01.2021 22:00:00 (CET)Rostock-Warnemünde, Germany (10170): wind direction: 11.01.2021 22:00:00 - 17.01.2021 22:00:00 (CET)Rostock-Warnemünde, Germany (10170): reduced air pressure: 11.01.2021 22:00:00 - 17.01.2021 22:00:00 (CET)Rostock-Warnemünde, Germany (10170): visibility: 11.01.2021 22:00:00 - 17.01.2021 22:00:00 (CET)Rostock-Warnemünde, Germany (10170): sunshine duration: 11.01.2021 22:00:00 - 17.01.2021 22:00:00 (CET)Rostock-Warnemünde, Germany (10170): precipitation: 11.01.2021 22:00:00 - 17.01.2021 22:00:00 (CET)
Date & Time tt [°C] td [°C] tt 5cm [°C] tt -5cm [°C] tt -20cm [°C] tt -100cm [°C] ff [km/h] ff [kn] fx [km/h] fx [kn] dd ppp [hPa] vv [km] sd [min] rr [mm]
17.01.2021 22:00:00 -1,6 -3,5 -3,2 -3,7 0,2 4,4 9 5 19 10 S 1020,9 22 0 0,0
17.01.2021 21:00:00 -1,4 -3,4 -2,7 -3,2 0,2 4,4 10 5 17 9 SSE 1021,2 23 0 0,0
17.01.2021 20:00:00 -1,4 -3,5 -3,0 -3,2 0,2 4,4 8 4 19 10 SSE 1021,4 25 0 0,0
17.01.2021 19:00:00 -1,0 -3,7 -2,3 -3,1 0,2 4,4 9 5 17 9 SSE 1021,3 29 0 0,0
17.01.2021 18:00:00 -0,6 -3,7 -2,3 -2,9 0,2 4,4 8 4 14 7 SSE 1021,2 34 0 0,0
17.01.2021 17:00:00 -0,5 -3,8 -3,2 -2,2 0,2 4,4 6 3 13 7 SSE 1021,0 35 11 0,0
17.01.2021 16:00:00 0,4 -4,1 -1,4 -1,1 0,2 4,4 5 3 14 7 SSE 1020,6 44 60 0,0
17.01.2021 15:00:00 0,5 -4,5 -0,6 -0,7 0,2 4,4 6 4 15 8 SSE 1020,2 54 43 0,0
17.01.2021 14:00:00 0,7 -4,4 0,9 -0,3 0,2 4,4 7 4 16 9 S 1019,9 39 60 0,0
17.01.2021 13:00:00 0,6 -4,7 0,9 -0,6 0,2 4,4 8 4 17 9 S 1020,2 54 60 0,0
17.01.2021 12:00:00 0,0 -5,0 1,4 -1,6 0,2 4,5 6 4 14 8 SSW 1020,2 40 60 0,0
17.01.2021 11:00:00 -1,2 -5,4 -1,4 -2,3 0,3 4,5 9 5 14 8 SSW 1020,1 31 60 0,0
17.01.2021 10:00:00 -2,6 -5,3 -3,5 -3,6 0,3 4,5 6 3 11 6 S 1019,5 26 50 0,0
17.01.2021 09:00:00 -3,0 -5,1 -4,1 -4,2 0,3 4,5 9 5 12 7 SSE 1019,1 21 0 0,0
17.01.2021 08:00:00 -3,3 -5,1 -5,5 -4,2 0,3 4,5 6 3 13 7 SSE 1018,8 20 0 0,0
17.01.2021 07:00:00 -2,8 -4,7 -4,7 -3,9 0,4 4,5 6 4 11 6 SSE 1018,2 20 0 0,0
17.01.2021 06:00:00 -2,8 -5,0 -4,7 -3,8 0,4 4,5 8 5 11 6 S 1018,2 23 0 0,0
17.01.2021 05:00:00 -2,8 -5,3 -4,2 -3,5 0,4 4,5 9 5 13 7 S 1018,0 24 0 0,0
17.01.2021 04:00:00 -2,5 -4,9 -4,1 -3,1 0,5 4,5 7 4 12 7 S 1018,1 26 0 0,0
17.01.2021 03:00:00 -1,9 -4,5 -3,9 -2,3 0,5 4,5 5 3 11 6 S 1018,3 27 0 0,0
17.01.2021 02:00:00 -1,6 -4,7 -3,2 -2,0 0,5 4,5 6 3 14 7 S 1018,6 30 0 0,0
17.01.2021 01:00:00 -1,1 -4,5 -1,5 -1,5 0,5 4,5 5 3 11 6 SSE 1019,1 30 0 0,0
17.01.2021 00:00:00 -1,4 -4,8 -2,0 -2,1 0,5 4,6 8 4 14 7 S 1019,4 34 0 0,0
16.01.2021 23:00:00 -1,6 -4,1 -3,5 -2,8 0,6 4,6 6 4 10 5 SSE 1019,4 36 0 0,0
16.01.2021 22:00:00 -0,9 -4,5 -2,7 -2,1 0,6 4,6 5 3 18 10 SSW 1019,5 43 0 0,0
16.01.2021 21:00:00 -0,8 -4,2 -3,2 -2,5 0,6 4,6 9 5 16 9 WNW 1019,6 62 0 0,0
16.01.2021 20:00:00 -0,4 -4,3 -3,0 -1,8 0,6 4,6 10 5 23 13 WNW 1019,9 68 0 0,0
16.01.2021 19:00:00 -0,2 -4,6 -0,6 -0,6 0,6 4,6 13 7 25 14 NNW 1020,4 61 0 0,0
16.01.2021 18:00:00 -0,1 -4,0 -0,4 -0,5 0,7 4,6 16 8 23 12 NNW 1020,8 63 0 0,0
16.01.2021 17:00:00 -0,2 -4,1 -0,5 -0,4 0,7 4,6 16 8 25 13 NW 1021,4 59 0 0,0
16.01.2021 16:00:00 -0,4 -4,0 -0,6 -0,2 0,6 4,6 16 9 25 13 NW 1021,5 63 0 0,0
16.01.2021 15:00:00 -0,2 -3,9 -0,2 -0,1 0,6 4,6 16 9 26 14 NNW 1021,5 63 0 0,0
16.01.2021 14:00:00 -0,3 -3,8 -0,2 -0,1 0,6 4,6 21 11 29 15 NW 1022,1 60 0 0,0
16.01.2021 13:00:00 -0,5 -4,5 -0,1 -0,1 0,6 4,7 21 11 29 15 NW 1022,6 54 1 0,0
16.01.2021 12:00:00 -0,8 -4,5 -0,5 -0,2 0,6 4,7 22 12 29 16 NW 1023,4 65 1 0,0
16.01.2021 11:00:00 -1,2 -4,9 -0,9 -0,8 0,7 4,7 23 12 29 16 NNW 1023,9 70 1 0,0
16.01.2021 10:00:00 -1,9 -5,2 -1,8 -1,7 0,7 4,7 20 11 27 15 NNW 1024,1 71 4 0,0
16.01.2021 09:00:00 -2,6 -6,5 -3,1 -2,3 0,7 4,7 23 13 32 17 N 1024,5 59 0 0,0
16.01.2021 08:00:00 -2,3 -6,0 -3,0 -1,8 0,8 4,7 29 15 37 20 NNW 1024,6 57 0 0,0
16.01.2021 07:00:00 -1,2 -4,9 -1,6 -1,2 0,8 4,7 33 18 42 23 NNW 1024,7 43 0 0,0
16.01.2021 06:00:00 0,2 -3,7 -0,2 -0,5 0,8 4,7 25 14 36 19 NNW 1024,6 46 0 0,0
16.01.2021 05:00:00 0,5 -3,4 0,0 -0,5 0,8 4,7 26 14 32 18 NNW 1024,9 41 0 0,0
16.01.2021 04:00:00 0,4 -3,3 0,1 -0,4 0,8 4,7 25 13 36 20 N 1025,1 43 0 0,0
16.01.2021 03:00:00 0,9 -3,1 0,4 -0,4 0,8 4,7 29 16 39 21 NNW 1025,4 23 0 0,0
16.01.2021 02:00:00 0,9 -4,1 0,5 -0,4 0,8 4,7 31 17 37 20 NNW 1025,5 45 0 0,0
16.01.2021 01:00:00 0,7 -3,8 0,3 -0,5 0,9 4,7 28 15 39 21 N 1025,8 46 0 0,0
16.01.2021 00:00:00 0,6 -3,8 0,2 -0,5 0,9 4,8 27 15 35 19 NNW 1026,2 23 0 0,0
15.01.2021 23:00:00 0,5 -4,0 0,2 -0,6 0,9 4,8 27 15 34 18 NNW 1026,3 50 0 0,0
15.01.2021 22:00:00 0,1 -5,1 -0,3 -0,8 0,9 4,8 22 12 31 17 N 1026,5 74 0 0,0
15.01.2021 21:00:00 -0,4 -5,8 -0,8 -1,1 0,9 4,8 21 12 34 18 N 1026,7 71 0 0,0
15.01.2021 20:00:00 -0,6 -5,8 -0,9 -0,9 1,0 4,8 31 17 42 23 N 1027,1 63 0 0,0
15.01.2021 19:00:00 -1,1 -6,4 -1,3 -1,1 1,0 4,8 32 18 46 25 N 1027,0 24 0 0,0
15.01.2021 18:00:00 -1,5 -6,5 -2,0 -1,2 1,1 4,8 26 14 39 21 N 1026,9 54 0 0,0
15.01.2021 17:00:00 -1,6 -7,7 -2,0 -1,1 1,2 4,8 24 13 34 19 N 1026,7 61 0 0,0
15.01.2021 16:00:00 -1,3 -6,5 -1,6 -0,7 1,2 4,8 27 14 34 19 N 1026,3 59 1 0,0
15.01.2021 15:00:00 -1,7 -7,0 -1,7 -0,4 1,3 4,8 26 14 35 19 N 1026,0 62 4 0,0
15.01.2021 14:00:00 -1,5 -7,1 -1,3 -0,2 1,3 4,8 26 14 37 20 N 1025,9 61 10 0,0
15.01.2021 13:00:00 -1,1 -5,3 -1,0 -0,1 1,3 4,8 29 16 39 21 N 1025,8 37 1 0,0
15.01.2021 12:00:00 -0,5 -4,8 -0,5 -0,1 1,3 4,8 34 19 46 25 N 1025,6 31 0 0,0
15.01.2021 11:00:00 0,1 -3,5 0,1 0,0 1,4 4,8 37 20 44 24 N 1025,1 18 0 0,0
15.01.2021 10:00:00 0,3 -3,4 0,0 0,0 1,4 4,8 32 17 43 23 NNE 1024,5 22 0 0,1
15.01.2021 09:00:00 -0,1 -3,9 -0,3 0,0 1,5 4,8 32 17 39 21 NNW 1024,1 19 0 0,0
15.01.2021 08:00:00 -0,2 -5,7 -0,4 0,1 1,5 4,8 24 13 37 20 NNW 1023,7 52 0 0,0
15.01.2021 07:00:00 0,1 -4,3 -0,1 0,1 1,6 4,8 28 15 43 23 N 1023,2 47 0 0,0
15.01.2021 06:00:00 0,2 -4,1 0,0 0,2 1,6 4,8 27 15 45 24 N 1023,0 37 0 0,0
15.01.2021 05:00:00 0,6 -3,6 0,4 0,2 1,7 4,8 31 17 40 21 N 1022,8 49 0 0,0
15.01.2021 04:00:00 0,8 -3,6 0,5 0,2 1,8 4,8 26 14 37 20 NNW 1022,8 51 0 0,0
15.01.2021 03:00:00 0,5 -2,8 0,3 0,2 1,9 4,8 22 12 40 21 NNW 1022,8 48 0 0,0
15.01.2021 02:00:00 0,9 -2,7 0,7 0,4 2,0 4,8 31 17 37 20 NNW 1022,5 49 0 0,0
15.01.2021 01:00:00 1,4 -2,3 1,2 0,7 2,0 4,9 24 13 35 19 N 1022,6 64 0 0,0
15.01.2021 00:00:00 1,5 -1,7 1,4 0,9 2,1 4,9 29 16 41 22 N 1022,6 44 0 0,0
14.01.2021 23:00:00 2,0 -2,4 1,6 0,9 2,2 4,9 22 12 32 17 NNE 1022,4 64 0 0,0
14.01.2021 22:00:00 2,3 -1,6 2,0 1,1 2,2 4,9 25 14 34 19 N 1022,1 53 0 0,0
14.01.2021 21:00:00 2,6 -1,2 2,2 1,2 2,3 4,9 27 15 32 17 NNE 1021,8 44 0 0,0
14.01.2021 20:00:00 2,7 -1,3 2,3 1,4 2,3 4,9 24 13 32 17 NNE 1021,5 57 0 0,0
14.01.2021 19:00:00 2,8 -0,9 2,3 1,5 2,4 4,9 25 14 35 19 NNE 1021,3 54 0 0,0
14.01.2021 18:00:00 2,8 -0,8 2,4 1,7 2,4 4,9 26 14 34 18 NNE 1021,1 56 0 0,0
14.01.2021 17:00:00 3,1 0,0 2,7 1,6 2,4 4,9 27 15 39 21 NNE 1020,6 45 0 0,0
14.01.2021 16:00:00 2,9 0,0 2,3 2,1 2,4 4,9 34 18 42 23 NNE 1019,8 45 0 0,0
14.01.2021 15:00:00 3,1 0,5 2,5 2,2 2,4 4,9 34 18 44 24 NNE 1019,2 41 0 0,1
14.01.2021 14:00:00 2,5 0,8 2,1 2,3 2,3 4,9 35 19 42 23 N 1019,0 23 0 0,0
14.01.2021 13:00:00 2,4 0,5 2,0 2,0 2,3 4,9 33 18 47 25 N 1018,7 28 0 0,0
14.01.2021 12:00:00 2,0 0,4 1,4 1,6 2,2 4,9 37 20 42 23 N 1018,6 14 0 0,2
14.01.2021 11:00:00 2,8 0,5 2,5 1,8 2,2 4,9 34 18 41 22 N 1018,0 41 0 0,0
14.01.2021 10:00:00 2,6 0,1 2,3 1,6 2,2 4,9 33 18 43 23 N 1017,3 41 0 0,0
14.01.2021 09:00:00 2,5 -0,3 2,3 1,5 2,2 4,9 37 20 44 24 N 1016,3 36 0 0,0
14.01.2021 08:00:00 2,5 -0,3 2,2 1,5 2,3 4,9 39 21 47 25 N 1015,3 39 0 0,0
14.01.2021 07:00:00 2,9 -0,4 2,6 1,5 2,3 4,9 41 22 55 30 N 1014,3 41 0 0,0
14.01.2021 06:00:00 2,9 -0,8 2,7 1,6 2,3 4,9 44 24 56 30 NNE 1013,4 34 0 0,0
14.01.2021 05:00:00 3,0 0,0 2,7 1,7 2,3 4,9 48 26 61 33 NNE 1012,2 41 0 0,0
14.01.2021 04:00:00 3,0 0,5 2,4 1,9 2,3 4,9 49 26 71 39 NNE 1010,8 37 0 0,0
14.01.2021 03:00:00 2,8 0,9 2,1 1,9 2,2 4,9 57 31 73 39 NNE 1009,0 31 0 0,1
14.01.2021 02:00:00 2,7 1,4 2,2 1,9 2,2 4,9 63 34 74 40 NNE 1006,8 27 0 0,3
14.01.2021 01:00:00 3,3 1,5 2,5 1,6 2,1 4,9 37 20 61 33 NE 1004,7 75 0 0,2
14.01.2021 00:00:00 2,4 0,6 1,5 1,6 2,1 5,0 31 17 62 33 NE 1002,8 56 0 0,7
13.01.2021 23:00:00 1,7 0,8 1,4 1,4 2,1 5,0 54 29 64 35 NNW 1000,6 12 0 0,1
13.01.2021 22:00:00 2,1 0,1 1,6 1,4 2,1 5,0 53 29 62 34 NNW 1000,0 27 0 0,0
13.01.2021 21:00:00 2,3 0,5 1,8 1,4 2,1 5,0 50 27 67 36 NNW 999,3 36 0 0,0
13.01.2021 20:00:00 2,4 -0,3 1,7 1,3 2,1 5,0 58 31 75 40 NW 998,8 21 0 0,0
13.01.2021 19:00:00 2,8 -0,6 2,0 0,9 2,1 5,0 57 31 73 40 NW 998,9 34 0 0,0
13.01.2021 18:00:00 2,8 0,2 2,1 1,5 2,1 5,0 53 29 73 39 NW 998,6 33 0 0,0
13.01.2021 17:00:00 2,4 0,9 1,8 1,5 2,2 5,0 59 32 74 40 NW 998,1 32 0 0,1
13.01.2021 16:00:00 2,6 0,5 1,8 0,6 2,3 5,0 46 25 74 40 W 997,4 7 0 0,0
13.01.2021 15:00:00 1,6 0,6 0,7 0,5 2,5 5,0 19 11 49 27 WSW 998,1 53 0 2,6
13.01.2021 14:00:00 2,3 0,9 1,8 2,4 2,4 5,0 31 17 65 35 W 999,5 7 0 1,1
13.01.2021 13:00:00 3,5 0,7 2,7 2,4 2,3 5,0 24 13 48 26 SW 1000,0 16 0 0,1
13.01.2021 12:00:00 3,2 0,1 3,1 2,4 2,2 5,0 26 14 54 29 SW 1001,5 40 0 0,0
13.01.2021 11:00:00 3,0 0,2 2,8 2,0 2,1 5,0 19 10 44 24 SW 1002,7 45 0 0,0
13.01.2021 10:00:00 2,4 0,2 2,0 1,3 2,1 5,0 21 12 46 25 SW 1003,2 45 0 0,0
13.01.2021 09:00:00 2,0 -0,1 1,2 0,6 2,2 5,0 17 9 37 20 WSW 1003,6 43 0 0,0
13.01.2021 08:00:00 2,6 -0,1 2,1 1,0 2,3 5,0 17 9 39 21 WSW 1003,8 51 0 0,0
13.01.2021 07:00:00 2,5 -0,3 1,6 1,1 2,4 5,0 22 12 48 26 WSW 1004,0 46 0 0,0
13.01.2021 06:00:00 2,7 0,1 1,9 1,4 2,4 5,0 21 11 41 22 W 1004,3 53 0 0,0
13.01.2021 05:00:00 2,9 -0,3 2,4 1,4 2,4 5,0 20 11 53 29 WSW 1004,4 46 0 0,0
13.01.2021 04:00:00 3,3 0,4 2,3 1,7 2,4 5,0 37 20 58 31 W 1004,3 36 0 0,0
13.01.2021 03:00:00 3,9 0,7 3,3 2,0 2,4 5,0 46 25 59 32 W 1004,2 34 0 0,0
13.01.2021 02:00:00 3,6 0,6 3,2 1,8 2,3 5,0 37 20 52 28 W 1003,9 32 0 0,0
13.01.2021 01:00:00 3,1 0,0 2,7 1,7 2,3 5,0 23 13 48 26 W 1004,0 40 0 0,0
13.01.2021 00:00:00 3,2 0,0 2,7 1,6 2,3 5,0 32 17 48 26 W 1003,9 36 0 0,0
12.01.2021 23:00:00 3,4 0,2 2,9 1,4 2,3 5,0 32 17 47 26 W 1003,8 34 0 0,0
12.01.2021 22:00:00 3,3 0,4 2,7 1,6 2,3 5,0 35 19 48 26 W 1003,5 36 0 0,0
12.01.2021 21:00:00 3,5 0,5 2,5 0,8 2,4 5,0 40 22 55 30 WNW 1002,8 37 0 0,0
12.01.2021 20:00:00 3,5 0,2 2,2 0,7 2,5 5,0 40 22 48 26 WNW 1002,0 55 0 0,0
12.01.2021 19:00:00 3,3 0,0 1,8 1,1 2,6 5,0 35 19 53 29 NW 1001,3 51 0 0,0
12.01.2021 18:00:00 3,2 1,9 2,6 1,3 2,7 5,0 35 19 50 27 WNW 1000,6 23 0 0,1
12.01.2021 17:00:00 0,9 -0,1 0,1 0,9 2,9 5,0 31 17 53 28 WNW 1000,6 5 0 0,9
12.01.2021 16:00:00 3,4 -0,2 2,1 1,6 3,0 5,0 14 7 26 14 SW 999,9 62 28 0,0
12.01.2021 15:00:00 4,1 -1,1 2,5 2,1 3,1 5,0 14 8 29 15 W 1000,0 62 60 0,0
12.01.2021 14:00:00 4,1 0,4 3,9 2,8 3,0 5,0 24 13 30 16 W 1000,1 51 60 0,0
12.01.2021 13:00:00 4,1 0,8 3,9 2,9 3,0 5,0 22 12 27 14 WNW 1000,2 57 51 0,0
12.01.2021 12:00:00 4,1 1,1 4,5 2,2 3,0 5,0 19 11 23 13 NW 1000,3 49 29 0,0
12.01.2021 11:00:00 3,9 0,5 2,7 1,9 3,1 5,0 19 10 28 15 NNW 1000,1 60 16 0,0
12.01.2021 10:00:00 4,1 1,5 2,8 2,4 3,2 5,0 21 11 23 13 NW 1000,0 56 0 0,0
12.01.2021 09:00:00 4,0 1,1 2,7 2,6 3,2 5,0 15 8 22 12 WNW 999,4 66 0 0,0
12.01.2021 08:00:00 3,6 1,6 2,7 2,7 3,3 5,0 16 9 23 13 WNW 999,1 61 0 0,0
12.01.2021 07:00:00 3,6 1,8 2,8 2,9 3,3 5,0 17 9 29 16 WNW 999,0 53 0 0,1
12.01.2021 06:00:00 3,7 2,4 3,2 3,5 3,3 5,0 29 15 56 31 NW 998,7 16 0 0,8
12.01.2021 05:00:00 5,7 4,1 4,8 3,8 3,2 5,0 23 13 46 25 SW 997,5 15 0 0,5
12.01.2021 04:00:00 4,9 3,4 4,2 3,3 3,1 5,0 27 15 53 29 SW 997,9 17 0 0,4
12.01.2021 03:00:00 4,4 2,7 3,6 3,1 3,0 5,0 28 15 53 29 SSW 998,7 18 0 0,0
12.01.2021 02:00:00 4,1 2,2 3,4 2,9 3,0 5,0 31 17 54 29 SSW 999,7 28 0 0,1
12.01.2021 01:00:00 4,0 2,2 3,2 2,8 3,0 5,0 31 17 53 29 SSW 1000,6 20 0 0,3
12.01.2021 00:00:00 3,8 2,1 3,1 2,8 3,0 5,0 29 15 50 27 SSW 1001,8 10 0 0,4
11.01.2021 23:00:00 3,8 2,2 3,1 2,7 2,9 5,0 26 14 54 29 SSW 1003,0 10 0 0,2
11.01.2021 22:00:00 3,7 1,8 3,2 2,6 2,9 5,0 29 16 45 24 SSW 1004,3 15 0 0,0

tt = temperature
td = dewpoint
tt 5cm = temperature 5cm
tt -5cm = temperature -5cm
tt -20cm = temperature -20cm
tt -100cm = temperature -100cm
ff = wind speed
fx = gusts
dd = wind direction
ppp = reduced air pressure
vv = visibility
sd = sunshine duration
rr = precipitation

Next stations